Wetbulb
48.70 48.21 48.18 48.75 49.10 49.12 48.64 48.55 50.07 49.51 50.34 50.46 50.69 52.09 51.64 50.82 50.37 49.41 48.78 48.34 47.29 46.80 46.19 45.65 45.68 46.28 45.79 45.43 44.82 44.46 43.37 42.87 40.31 42.99 44.56 44.98 41.03 39.77 39.00 38.31 38.45 38.04 37.97
44.83 45.25 45.03 44.90 44.62 44.23 44.23 44.52 45.50 45.43 45.04 44.64 44.56 44.87 45.17 45.43 45.60 45.04 45.56 45.95 45.82 45.27 45.23 44.67 44.47 44.80 44.53 45.22 44.58 43.64 43.32 43.31 41.55 40.03 42.42 42.76 42.47 42.48 41.35 39.68 38.27 37.42 37.43
40.98 40.48 40.19 39.97 39.57 39.13 39.17 39.59 39.88 40.22 40.02 40.22 40.26 39.86 40.10 40.64 40.99 41.15 40.99 41.44 42.57 43.00 43.29 42.85 43.19 43.35 40.63 41.02 42.22 42.56 43.05 42.75 42.08 40.36 40.03 42.11 42.20 42.13 39.82 36.92 36.84 36.10 35.75
39.31 38.22 37.06 37.02 37.39 37.28 37.47 37.18 37.24 37.24 36.62 36.31 36.68 36.13 36.10 37.21 37.32 35.76 36.07 37.17 37.26 37.92 38.20 39.15 39.95 39.31 38.29 38.94 39.25 39.48 39.96 39.63 39.75 39.41 39.19 39.24 39.77 39.85 34.82 36.63 37.50 34.83 34.51
35.13 34.29 33.64 33.64 33.52 33.27 32.66 32.72 32.17 32.39 32.74 32.38 32.60 32.81 32.96 34.62 34.46 33.34 32.66 33.85 33.84 34.00 33.93 34.82 35.19 35.26 35.64 37.00 37.34 37.18 37.40 37.37 37.59 36.87 36.93 37.22 37.56 37.28 36.49 36.55 34.60 36.26 36.50
32.08 31.27 31.39 30.36 29.37 29.15 29.40 29.76 29.86 29.83 30.11 30.33 30.45 30.52 30.57 31.80 36.98 37.70 36.13 32.36 32.38 32.35 32.70 32.80 33.02 32.66 33.81 37.34 38.40 37.99 37.03 34.92 33.69 34.11 33.77 33.60 34.46 36.30 37.22 36.58 36.42 35.02 33.67
28.95 28.60 28.46 28.25 27.75 27.63 28.32 28.31 28.27 28.18 28.84 28.90 29.35 29.81 29.98 30.88 34.89 35.34 35.38 32.09 31.48 31.23 31.63 32.34 32.90 32.51 31.55 32.27 35.14 35.65 35.05 36.04 36.87 35.09 33.38 33.15 33.18 34.36 34.91 34.44 34.74 34.77 34.59
27.16 26.50 26.29 25.88 25.58 26.15 26.30 26.21 27.05 27.43 28.04 28.83 28.97 29.38 29.43 29.67 33.38 34.24 34.69 30.96 30.58 30.99 31.39 31.82 31.90 32.14 33.46 32.66 32.70 32.33 32.30 32.64 32.93 33.25 33.30 33.23 33.84 34.36 33.97 33.84 33.66 34.01 35.02
24.72 24.23 24.08 23.80 23.27 24.46 23.58 24.63 25.43 25.80 26.92 27.28 28.39 27.98 27.81 28.76 32.61 33.89 33.43 30.73 30.78 30.50 30.82 30.45 30.97 32.10 33.79 34.82 32.44 31.75 31.55 31.73 34.81 36.29 36.72 37.14 37.69 38.00 37.64 35.31 32.82 32.15 31.04
22.71 22.69 22.62 22.58 22.50 22.31 23.00 23.23 24.10 25.12 25.80 25.94 26.63 26.83 26.99 26.72 31.46 33.67 33.13 30.10 30.45 30.33 31.33 31.58 32.22 31.76 34.59 34.96 32.13 31.60 30.23 30.85 31.71 32.18 32.58 33.75 35.05 34.54 35.96 34.63 33.36 30.50 30.86
21.41 21.29 20.81 20.76 22.08 21.82 21.35 21.94 21.70 21.08 22.43 21.76 23.59 24.78 24.34 25.59 27.57 31.83 32.66 30.03 29.92 29.65 29.58 29.85 30.91 33.34 33.78 33.88 34.15 31.87 31.56 33.56 33.75 32.37 30.95 30.49 31.24 32.52 33.89 33.91 33.53 32.38 30.28
19.59 19.05 19.06 19.28 20.83 20.01 19.47 20.15 18.99 19.46 18.26 18.82 19.14 20.04 22.98 23.61 26.35 28.42 29.97 30.36 30.32 27.03 26.57 28.07 29.24 32.25 34.12 33.70 32.74 33.47 34.17 34.17 32.16 30.61 29.04 28.65 28.37 29.63 32.64 33.56 33.08 32.84 33.47
18.23 18.16 18.43 18.94 18.95 19.30 18.20 18.35 18.49 18.45 15.61 15.74 18.59 18.36 19.40 21.93 22.68 26.13 26.72 28.13 28.37 26.93 27.52 28.67 30.89 31.62 32.37 32.07 32.63 33.55 32.27 31.94 31.34 29.40 28.31 27.92 28.22 29.73 31.85 31.00 31.50 32.52 32.62
16.93 17.05 18.05 17.80 17.60 17.56 18.98 19.14 15.87 12.34 12.83 15.85 15.85 15.93 17.70 19.12 20.37 22.23 24.23 25.06 26.34 26.61 27.63 27.20 29.30 31.13 31.61 31.49 29.50 30.99 31.68 31.64 30.55 29.49 28.82 29.17 29.13 28.58 28.56 29.43 29.92 30.16 27.52
16.04 16.44 15.85 16.40 15.54 16.01 17.10 14.76 16.64 16.00 15.08 10.38 9.03 15.43 17.90 17.44 20.06 25.68 25.35 24.09 25.11 26.79 27.30 27.48 26.56 26.58 26.47 27.20 28.17 29.12 29.85 29.62 27.84 27.96 28.02 27.48 27.46 27.29 27.77 28.85 26.27 24.30 23.20
14.73 14.21 13.24 13.40 14.02 14.24 13.78 13.47 18.39 19.77 20.78 21.55 22.29 21.46 21.04 23.74 24.74 24.83 25.82 26.09 26.29 27.08 25.37 26.78 25.90 25.93 26.12 26.30 27.54 28.71 24.07 25.04 26.71 27.72 27.62 27.08 26.43 26.95 27.65 23.70 22.15 21.26 21.64
10.61 11.40 11.24 12.27 12.11 11.48 11.25 10.70 8.94 12.52 17.94 19.30 20.58 21.41 22.10 21.42 22.84 23.42 23.94 23.29 21.34 20.08 13.43 13.68 14.49 15.70 16.62 19.37 23.79 28.58 27.78 27.39 26.73 28.02 27.36 27.62 27.73 27.92 24.12 21.21 19.11 20.61 19.89
8.29 8.03 9.13 9.80 8.94 7.78 7.59 7.57 6.41 4.42 5.87 8.02 14.36 18.14 18.75 19.63 20.71 20.80 20.70 15.23 9.04 10.62 9.02 8.89 9.69 11.47 12.77 15.82 16.14 17.90 22.44 26.89 27.42 27.73 28.02 27.70 27.57 26.14 23.27 20.83 20.95 19.32 20.23
6.87 6.35 4.24 3.51 3.07 3.05 1.82 0.75 -0.47 -2.58 -2.92 -1.23 0.39 9.76 10.57 17.28 17.21 16.57 15.73 7.10 6.13 5.95 6.72 6.80 7.61 8.74 10.53 11.97 12.75 14.32 16.17 18.34 23.36 27.97 27.65 26.78 26.66 25.90 24.49 21.89 21.46 21.33 20.80
2.12 4.40 3.87 0.91 0.47 -0.21 -0.87 -1.15 -1.64 -3.60 -3.00 -3.15 -3.60 -2.97 6.18 3.88 1.70 3.93 2.98 3.06 4.28 4.78 5.74 6.01 6.17 7.09 8.23 9.24 10.41 12.29 13.23 14.60 15.94 17.27 21.31 27.08 27.10 26.09 24.58 22.22 20.53 20.59 20.47
0.04 -0.51 1.82 -2.53 -3.16 -3.00 -3.68 -5.28 -4.52 -4.95 -5.35 -6.28 -3.79 -2.06 16.33 0.40 -4.21 -4.32 -2.72 -1.22 0.81 3.92 4.64 5.50 5.42 6.02 6.56 6.77 7.89 9.91 11.96 13.00 13.51 13.73 15.22 17.88 23.64 26.14 24.93 24.82 23.02 20.98 20.03
-1.44 -3.29 -3.56 -3.66 -1.72 -2.13 -5.52 -4.29 -4.29 -4.34 -4.68 -6.75 -5.23 -4.82 12.60 -5.32 -7.06 -4.08 -4.70 -6.02 -4.67 -3.64 2.44 4.98 4.59 4.93 5.64 6.10 6.48 7.61 8.87 11.36 13.06 12.40 12.39 14.63 18.51 23.58 25.65 24.46 23.50 22.45 19.94
-3.05 -3.34 -3.64 -4.36 -3.90 -2.70 -4.61 -6.51 -5.95 -6.60 -7.22 -8.92 -6.77 -3.72 -7.37 -8.07 -8.40 -6.13 -4.03 -2.87 -4.78 -5.10 -2.45 2.86 3.82 3.92 5.58 6.28 7.23 8.37 8.00 8.99 12.75 12.69 11.06 12.17 15.57 17.98 19.84 22.67 23.91 21.76 21.20
-5.97 -5.97 -6.40 -7.60 -7.33 -8.89 -9.45 -9.67 -9.14 -5.62 -6.51 -8.13 -9.32 -5.97 -5.09 -6.01 -6.84 -5.63 -5.02 -4.08 -4.97 -5.68 -7.78 -2.29 0.64 1.30 4.20 5.31 5.71 7.39 7.93 9.96 12.15 12.86 11.70 11.66 12.95 14.41 16.06 16.94 18.97 21.31 21.11
-10.80 -9.67 -10.40 -10.70 -12.44 -11.44 -11.55 -11.70 -9.95 -11.70 -10.15 -7.74 -5.94 -8.56 -10.32 -6.92 -6.20 -6.46 -6.04 -6.66 -6.35 -5.73 -8.42 -5.02 -2.72 -2.60 -1.31 1.91 3.47 4.82 5.81 8.51 9.63 13.51 11.61 10.83 10.65 11.40 11.07 13.11 14.32 16.41 16.98
-10.66 -11.97 -12.99 -12.26 -12.85 -13.28 -13.55 -12.02 -10.94 -9.65 -7.60 -6.66 -7.15 -7.91 -7.98 -6.44 -6.27 -7.06 -6.24 -7.52 -6.04 -8.22 -7.04 -6.57 -6.81 -6.56 -5.79 -1.96 -0.25 4.78 7.47 8.69 9.82 13.46 10.90 9.38 8.32 8.18 8.90 9.58 10.65 12.42 13.74
MSLP
1018.45 1018.60 1018.81 1019.11 1019.54 1019.76 1019.98 1020.27 1020.43 1020.63 1020.71 1020.98 1021.16 1021.37 1021.64 1021.87 1021.90 1022.27 1022.64 1023.03 1023.28 1023.45 1023.56 1023.84 1023.88 1024.02 1024.06 1023.98 1023.90 1023.90 1023.81 1023.70 1022.53 1021.11 1021.37 1021.02 1021.03 1020.99 1020.83 1020.66 1020.56 1020.51 1020.41
1019.12 1019.20 1019.49 1019.81 1020.29 1020.66 1020.92 1021.03 1021.07 1021.27 1021.44 1021.62 1021.81 1022.09 1022.30 1022.46 1022.55 1022.88 1022.95 1023.23 1023.51 1023.56 1023.66 1023.67 1023.71 1023.73 1023.72 1023.64 1023.53 1023.39 1023.20 1023.01 1022.66 1020.78 1020.96 1020.69 1020.52 1020.25 1019.87 1019.86 1019.73 1019.63 1019.46
1019.85 1020.04 1020.24 1020.65 1021.13 1021.64 1021.83 1021.92 1022.02 1022.08 1022.26 1022.36 1022.58 1022.75 1022.91 1023.17 1023.29 1023.31 1023.54 1023.40 1023.52 1023.68 1023.75 1023.65 1023.60 1023.55 1023.48 1023.32 1023.13 1022.94 1022.72 1022.48 1022.18 1021.27 1019.77 1020.11 1019.62 1019.57 1019.21 1019.19 1018.94 1018.79 1018.50
1020.66 1020.88 1021.22 1021.75 1022.07 1022.48 1022.67 1022.79 1022.87 1022.96 1023.01 1023.13 1023.33 1023.45 1023.53 1023.63 1023.86 1023.92 1023.86 1023.62 1023.59 1023.65 1023.58 1023.60 1023.59 1023.52 1023.41 1023.08 1022.82 1022.63 1022.49 1022.24 1021.91 1021.20 1019.95 1019.32 1019.25 1018.93 1018.93 1018.83 1017.89 1017.93 1017.36
1021.32 1021.62 1022.28 1022.59 1022.78 1023.01 1023.21 1023.43 1023.56 1023.71 1023.91 1023.94 1023.76 1023.78 1023.82 1023.95 1024.13 1024.19 1024.15 1023.85 1023.63 1023.45 1023.26 1023.19 1023.10 1023.00 1022.87 1022.76 1022.69 1022.41 1022.28 1021.92 1021.49 1020.89 1019.98 1019.21 1018.68 1018.55 1018.42 1017.80 1017.35 1016.77 1016.04
1022.19 1022.46 1023.08 1023.22 1023.38 1023.57 1023.72 1023.91 1024.08 1024.30 1024.27 1024.47 1024.25 1024.12 1024.06 1024.23 1024.11 1024.11 1024.11 1023.98 1023.64 1023.47 1023.29 1023.03 1022.98 1022.79 1022.60 1022.32 1022.22 1021.95 1021.93 1021.55 1021.26 1020.96 1019.94 1019.31 1018.20 1018.44 1017.83 1017.49 1016.75 1016.03 1014.72
1022.61 1023.16 1023.61 1023.91 1024.09 1024.26 1024.27 1024.32 1024.52 1024.69 1024.88 1025.08 1024.70 1024.54 1024.58 1024.45 1024.07 1024.03 1024.06 1023.91 1023.71 1023.48 1023.22 1022.92 1022.63 1022.55 1022.44 1022.11 1021.81 1021.52 1021.36 1021.22 1020.92 1020.48 1019.47 1018.87 1017.99 1017.91 1017.63 1016.89 1016.40 1015.61 1014.50
1023.45 1023.83 1024.18 1024.45 1024.55 1024.68 1024.76 1024.95 1025.14 1025.29 1025.39 1025.32 1024.85 1025.02 1024.85 1024.40 1024.09 1023.95 1023.71 1023.54 1023.19 1022.97 1022.84 1022.73 1022.69 1022.52 1022.27 1021.89 1021.38 1020.95 1020.73 1020.51 1020.28 1020.07 1019.49 1018.45 1018.03 1017.36 1017.03 1016.54 1015.69 1014.86 1013.78
1024.14 1024.56 1024.84 1025.03 1025.14 1025.24 1025.38 1025.51 1025.62 1025.57 1025.44 1025.58 1025.14 1024.88 1024.69 1024.44 1024.00 1023.69 1023.42 1023.37 1023.17 1023.06 1022.88 1022.72 1022.52 1022.06 1021.71 1021.31 1020.83 1020.30 1019.84 1019.40 1019.02 1018.54 1018.13 1017.56 1016.87 1016.15 1015.92 1015.32 1014.60 1014.16 1012.72
1024.76 1025.14 1025.39 1025.59 1025.62 1025.66 1025.68 1025.82 1026.01 1025.91 1025.65 1025.59 1025.41 1025.24 1024.99 1024.69 1024.32 1023.91 1023.59 1023.49 1023.25 1022.93 1022.77 1022.26 1021.95 1021.60 1021.21 1020.92 1020.52 1019.91 1018.96 1018.49 1018.08 1017.45 1016.89 1016.32 1015.94 1015.12 1014.55 1014.21 1013.91 1013.30 1012.46
1025.36 1025.68 1025.91 1025.96 1026.01 1026.02 1026.07 1026.21 1025.92 1026.10 1026.13 1025.77 1025.57 1025.34 1025.31 1025.03 1024.69 1024.12 1023.79 1023.53 1023.29 1022.70 1022.24 1021.74 1021.33 1021.02 1020.68 1020.22 1019.82 1019.32 1018.58 1017.79 1017.01 1016.68 1015.89 1015.24 1014.74 1014.17 1013.36 1012.91 1012.75 1012.43 1011.66
1025.70 1025.96 1026.17 1026.21 1026.17 1026.13 1026.12 1026.37 1026.75 1026.52 1026.50 1026.49 1026.19 1026.07 1025.85 1025.45 1025.23 1024.74 1024.28 1023.87 1023.46 1023.10 1022.32 1021.67 1021.02 1020.44 1019.83 1019.18 1018.69 1018.23 1017.65 1017.07 1016.43 1015.87 1015.16 1014.36 1013.89 1013.20 1012.45 1012.04 1011.77 1011.11 1010.75
1026.07 1026.03 1026.00 1026.20 1026.40 1026.61 1026.81 1027.08 1026.84 1026.80 1027.07 1027.14 1026.73 1026.35 1026.04 1025.76 1025.39 1024.87 1024.56 1023.90 1023.40 1022.63 1022.01 1021.21 1020.42 1019.70 1018.95 1018.25 1017.65 1017.10 1016.34 1015.93 1015.74 1015.17 1014.31 1013.78 1013.24 1012.44 1012.06 1011.47 1010.83 1010.00 1009.59
1025.92 1026.40 1026.66 1026.90 1027.02 1027.10 1027.38 1027.39 1027.35 1027.58 1027.64 1027.43 1026.69 1026.35 1026.24 1025.86 1025.32 1024.79 1024.15 1023.52 1023.00 1022.14 1021.52 1020.68 1019.82 1019.08 1018.28 1017.60 1016.73 1016.13 1015.59 1015.30 1014.85 1014.45 1013.65 1012.85 1012.29 1012.04 1011.47 1010.90 1010.03 1009.38 1009.19
1026.51 1026.75 1026.98 1027.35 1027.57 1027.74 1027.76 1027.57 1027.50 1027.67 1027.20 1026.69 1026.56 1026.40 1026.25 1025.81 1025.22 1024.41 1024.08 1023.50 1022.87 1022.13 1021.03 1020.00 1019.11 1018.53 1017.81 1017.09 1016.26 1015.66 1015.12 1014.79 1014.38 1013.79 1013.22 1012.53 1011.98 1011.56 1010.94 1010.28 1009.87 1009.56 1009.54
1026.70 1027.17 1027.36 1027.45 1027.75 1028.02 1028.22 1028.21 1027.78 1027.27 1026.82 1026.42 1026.22 1026.06 1025.91 1025.46 1024.99 1024.47 1023.76 1023.23 1022.76 1021.95 1020.84 1020.10 1019.56 1019.04 1018.28 1017.50 1016.44 1015.40 1015.02 1014.35 1013.82 1013.35 1012.76 1012.22 1011.72 1011.19 1010.60 1010.34 1010.12 1009.90 1009.84
1027.29 1027.48 1027.33 1027.77 1028.40 1028.58 1028.57 1028.56 1028.32 1027.64 1027.02 1026.78 1026.48 1026.07 1025.82 1025.84 1025.15 1024.62 1023.92 1023.61 1023.43 1022.71 1022.57 1022.09 1021.49 1020.66 1019.76 1018.71 1017.47 1015.70 1014.67 1014.02 1013.48 1012.98 1012.41 1011.81 1011.36 1010.81 1010.51 1010.26 1010.12 1010.00 1009.92
1027.68 1027.86 1028.14 1028.30 1028.39 1028.65 1028.90 1028.84 1028.56 1028.34 1028.01 1027.35 1026.91 1026.44 1026.30 1025.96 1025.33 1024.78 1024.36 1024.40 1024.21 1023.95 1023.96 1023.29 1022.53 1021.78 1020.79 1019.61 1018.43 1017.33 1015.86 1014.21 1013.30 1012.61 1012.07 1011.62 1011.13 1010.75 1010.39 1010.19 1010.11 1010.06 1009.96
1028.27 1028.54 1028.67 1028.64 1028.62 1028.65 1028.65 1028.86 1029.08 1028.68 1028.60 1028.43 1027.80 1027.32 1027.16 1026.19 1025.75 1025.58 1025.42 1025.50 1025.28 1024.82 1024.39 1023.88 1023.30 1022.44 1021.48 1020.51 1019.48 1018.34 1017.18 1015.69 1014.15 1012.56 1011.99 1011.50 1010.97 1010.58 1010.19 1009.95 1009.85 1009.76 1009.71
1028.50 1028.82 1028.94 1028.87 1028.91 1029.08 1028.91 1028.92 1028.92 1028.99 1029.22 1029.18 1028.84 1028.66 1027.63 1027.08 1026.85 1026.77 1026.70 1026.54 1026.20 1025.62 1024.90 1024.29 1023.72 1023.08 1022.29 1021.41 1020.30 1019.09 1017.89 1016.66 1015.44 1014.35 1013.09 1011.61 1010.78 1010.37 1010.10 1009.84 1009.62 1009.61 1009.56
1028.46 1029.03 1028.97 1028.86 1028.96 1029.00 1029.25 1029.30 1029.37 1029.51 1029.55 1029.52 1029.39 1028.51 1027.58 1027.80 1028.06 1027.89 1027.55 1027.00 1026.59 1026.03 1025.37 1024.69 1024.17 1023.53 1022.81 1021.97 1020.96 1019.78 1018.59 1017.55 1016.55 1015.47 1014.24 1012.94 1011.43 1010.29 1009.96 1009.66 1009.45 1009.38 1009.31
1028.60 1028.78 1028.68 1028.86 1028.64 1029.12 1029.62 1029.41 1029.59 1029.68 1029.77 1029.75 1029.29 1028.51 1028.19 1028.31 1028.05 1027.63 1027.21 1026.82 1026.57 1026.19 1025.67 1025.00 1024.35 1023.83 1023.21 1022.43 1021.54 1020.58 1019.45 1018.23 1017.08 1016.20 1015.12 1013.89 1012.41 1010.97 1010.16 1009.63 1009.37 1009.29 1009.23
1028.57 1028.52 1028.51 1028.76 1029.05 1029.27 1029.56 1029.42 1029.62 1029.75 1029.66 1029.37 1028.97 1028.79 1028.38 1028.08 1027.83 1027.49 1027.08 1026.72 1026.29 1025.89 1025.35 1024.80 1024.23 1023.59 1023.02 1022.51 1021.82 1020.98 1020.05 1018.92 1017.73 1017.02 1015.96 1014.67 1013.31 1012.19 1011.22 1010.21 1009.48 1009.22 1009.23
1028.34 1028.29 1028.87 1029.25 1029.37 1029.71 1029.82 1029.68 1029.35 1029.14 1029.13 1029.08 1028.79 1028.51 1028.31 1027.96 1027.52 1027.12 1026.79 1026.29 1025.92 1025.52 1025.21 1024.73 1024.16 1023.63 1022.90 1022.31 1021.77 1021.00 1020.26 1019.24 1018.18 1017.20 1016.42 1015.36 1014.23 1013.15 1012.10 1011.27 1010.48 1009.79 1009.30
1028.34 1028.55 1028.88 1029.32 1029.47 1029.66 1029.73 1029.77 1029.68 1028.99 1028.73 1028.70 1028.50 1028.20 1027.77 1027.44 1027.05 1026.67 1026.41 1025.96 1025.55 1025.16 1024.85 1024.42 1023.83 1023.36 1022.83 1022.18 1021.52 1020.84 1020.11 1019.19 1018.23 1017.14 1016.48 1015.79 1014.96 1014.03 1013.24 1012.31 1011.55 1010.72 1010.15
1028.09 1028.13 1028.27 1028.57 1029.11 1029.25 1029.61 1029.41 1029.11 1028.68 1028.67 1028.33 1027.97 1027.61 1027.25 1026.85 1026.40 1026.05 1025.86 1025.47 1025.07 1024.74 1024.23 1023.82 1023.32 1022.88 1022.39 1021.68 1021.11 1020.46 1019.71 1018.95 1017.96 1017.04 1016.59 1016.11 1015.51 1014.76 1013.99 1013.18 1012.40 1011.69 1011.11
Wind_Speed
6 6 7 7 6 6 7 6 5 5 5 5 5 4 4 3 4 3 1 1 4 4 4 5 6 5 5 4 4 5 7 8 13 10 9 8 5 8 7 9 9 9 8
6 8 9 9 9 9 8 8 7 7 6 6 6 6 6 6 5 3 2 4 4 4 4 4 6 4 7 6 5 7 9 8 9 20 11 10 11 8 8 10 8 7 9
6 8 9 9 9 8 8 7 7 7 7 7 7 7 6 6 6 5 5 4 4 4 5 5 5 5 5 4 5 7 8 7 9 11 14 11 10 8 7 6 7 7 8
8 9 10 9 9 8 8 8 8 7 7 7 6 6 7 6 6 6 5 4 3 4 5 4 6 6 6 6 6 7 7 8 9 11 12 13 10 7 3 8 12 7 10
9 10 8 7 8 8 8 7 7 7 6 6 6 7 6 5 4 5 5 5 5 6 6 6 5 6 9 9 7 9 9 9 8 9 13 13 12 11 11 7 10 10 11
8 9 7 7 7 7 7 7 7 7 7 6 7 7 7 4 11 10 8 6 6 6 8 6 6 7 9 13 14 17 15 11 14 11 14 14 17 12 11 11 13 11 15
8 7 7 6 7 6 6 7 7 7 6 6 6 6 6 5 12 14 12 5 6 6 6 7 7 4 6 6 12 17 15 16 17 13 16 16 18 16 13 14 14 13 14
8 8 6 6 6 6 6 7 6 4 4 4 4 4 4 4 14 15 14 4 4 6 6 7 7 8 10 11 11 11 11 10 10 9 13 17 17 16 14 14 17 16 14
7 7 6 6 5 5 6 5 4 3 4 4 3 6 7 8 16 17 15 7 8 7 5 5 6 8 12 17 11 12 14 13 12 18 21 25 28 28 24 13 14 13 16
6 7 6 5 4 5 6 5 3 2 4 5 6 4 5 6 14 17 14 4 11 10 11 8 11 9 15 17 11 12 15 14 14 14 12 15 19 19 25 16 12 13 13
6 6 6 5 4 5 3 3 5 5 5 4 5 5 5 5 8 18 18 8 9 11 10 10 8 18 21 24 25 14 17 18 18 12 12 12 12 12 10 8 11 11 11
5 6 5 4 4 6 7 6 4 4 5 6 5 4 3 5 12 14 18 19 20 11 12 10 12 24 26 27 22 24 25 22 11 11 11 11 11 11 9 8 10 11 12
5 5 7 6 6 5 5 3 4 5 4 4 4 4 6 6 6 16 18 21 20 14 11 19 29 27 27 21 22 23 20 10 9 9 10 11 10 10 12 12 12 13 14
7 6 5 5 4 4 3 3 3 3 2 3 4 6 6 7 7 8 9 10 14 13 17 14 19 24 23 20 14 12 8 9 8 8 10 10 9 9 10 9 10 8 5
5 4 4 3 3 2 2 1 1 3 2 2 1 2 6 7 7 17 17 12 12 15 19 11 10 10 10 10 10 10 7 5 6 8 9 10 9 9 9 7 4 2 3
5 3 3 2 2 2 1 2 6 7 9 9 10 8 4 13 20 21 23 23 24 25 11 9 9 9 10 11 12 10 5 6 6 8 8 8 9 8 7 2 2 2 2
4 3 3 3 1 1 2 2 3 5 10 10 13 14 14 17 18 20 20 21 19 16 7 8 8 9 11 11 14 9 9 8 8 8 8 7 7 7 4 3 2 2 2
3 4 2 2 2 1 1 2 2 2 5 6 10 14 16 18 21 20 21 13 7 9 7 8 9 9 10 11 11 12 13 11 8 7 7 7 6 6 5 3 3 2 2
2 2 1 0 0 1 2 1 1 2 3 4 4 9 10 17 19 18 17 6 7 8 7 8 9 10 10 11 11 11 12 11 14 9 6 6 6 5 5 3 3 4 3
3 3 1 0 0 1 1 1 3 3 2 3 3 3 6 3 5 7 5 5 6 6 7 8 9 9 9 10 10 10 11 12 12 11 12 9 6 5 5 4 3 3 3
3 3 4 2 1 0 1 2 1 1 2 2 4 4 15 4 3 2 3 3 4 7 7 7 8 8 8 9 10 10 10 10 11 11 11 11 11 7 5 4 4 3 2
3 3 2 2 1 2 1 2 2 1 2 2 3 4 13 2 3 4 4 4 3 3 4 7 7 7 7 8 9 10 10 11 11 11 11 11 11 11 7 4 4 3 2
3 2 1 1 1 1 2 2 1 2 2 3 3 4 3 3 4 4 5 5 4 4 3 6 7 7 6 8 8 8 10 10 11 10 11 11 10 10 9 9 5 3 2
3 3 2 0 1 1 2 3 2 4 3 3 3 4 4 4 4 5 5 5 4 4 4 4 5 8 8 8 8 7 9 11 11 8 12 10 10 11 9 9 8 8 2
3 2 2 1 1 2 3 3 3 3 3 4 4 4 4 5 5 5 5 4 5 5 4 5 4 6 9 13 12 12 14 17 16 9 8 10 11 12 10 8 9 8 5
3 3 1 0 2 3 3 3 4 3 5 5 5 5 5 5 5 5 5 5 5 5 6 5 6 9 10 9 9 14 16 16 15 13 7 7 8 8 8 9 11 7 7
Wind_Direction
78 74 73 72 66 65 69 65 76 74 74 68 64 86 86 86 88 91 107 217 223 229 210 223 238 233 234 225 219 225 235 239 267 279 279 275 236 241 236 234 240 242 251
66 77 71 67 61 59 59 51 49 63 55 54 48 47 39 37 35 46 7 351 316 292 269 249 251 235 243 243 236 242 245 244 262 281 283 284 273 268 253 243 237 231 238
73 76 73 69 68 59 53 47 44 56 52 48 51 54 47 33 26 25 17 4 320 302 300 288 277 265 264 259 250 257 260 261 258 270 284 285 285 280 266 257 247 242 238
81 73 68 62 64 59 53 50 48 44 49 45 42 44 38 30 32 14 356 341 308 291 292 290 295 293 283 289 282 278 275 274 273 273 279 286 284 287 256 281 277 236 252
83 77 72 70 67 64 57 48 46 45 39 38 44 37 32 34 15 357 341 328 318 302 282 270 262 258 270 276 283 284 286 283 282 280 281 288 290 291 284 289 270 282 267
88 81 71 69 64 60 58 55 50 38 34 25 28 24 14 5 344 348 338 318 312 304 300 290 269 267 268 268 267 283 281 285 281 280 283 283 286 286 290 288 288 287 290
93 83 74 67 65 51 52 51 42 32 21 13 18 13 358 343 349 344 335 307 294 282 278 289 301 281 277 285 300 301 297 291 283 286 282 280 288 291 297 294 285 281 279
86 80 66 65 64 52 53 48 35 22 7 353 5 344 326 341 346 342 340 318 300 295 298 298 294 301 312 312 307 300 296 287 276 271 270 283 282 284 274 274 277 276 274
86 78 65 56 57 54 50 32 22 1 5 343 346 354 352 338 343 345 349 342 334 323 301 287 283 302 305 307 301 296 296 293 281 279 274 272 274 275 274 282 280 281 282
83 81 70 61 61 58 37 19 346 328 353 349 348 337 317 317 326 339 347 331 334 328 320 309 299 298 300 304 301 296 294 295 293 290 283 286 284 273 267 259 268 272 278
92 86 73 58 60 55 45 18 10 0 338 348 352 349 337 340 345 348 344 335 324 322 317 312 309 311 307 304 302 294 288 296 299 296 293 294 290 280 269 247 235 245 263
98 97 84 66 56 35 29 16 344 351 1 348 355 342 338 355 347 345 347 345 337 325 313 309 306 304 305 306 307 299 298 295 285 286 288 292 295 296 295 277 262 250 251
113 88 59 47 38 29 22 356 10 8 8 334 353 353 350 349 340 345 339 334 330 321 310 306 310 309 306 303 297 295 287 277 271 276 284 289 287 291 290 283 279 269 264
75 66 61 56 39 32 5 17 15 4 318 292 357 358 346 341 340 330 329 328 323 321 311 304 302 304 301 294 296 292 276 261 259 269 282 285 289 289 288 282 286 280 265
102 92 75 70 52 27 6 340 339 262 281 354 290 330 339 331 322 334 334 327 320 313 312 301 302 307 307 306 304 297 288 267 267 280 287 293 293 292 285 290 275 284 250
113 106 95 79 53 39 12 313 340 360 352 355 355 351 331 335 342 335 333 334 336 336 325 316 314 317 318 320 306 298 283 285 284 290 289 290 289 289 290 286 288 276 272
111 116 81 71 79 48 15 0 335 336 355 1 359 357 358 352 343 343 346 351 348 359 359 347 336 335 331 323 326 318 319 312 296 289 286 286 293 292 279 269 272 263 278
115 114 135 140 104 73 12 321 334 342 335 338 352 356 359 348 353 357 358 2 359 5 355 342 338 331 327 330 331 329 330 315 298 291 291 293 295 298 287 267 261 251 252
146 113 75 41 168 196 233 257 301 23 354 320 336 346 336 343 354 0 8 10 352 348 346 341 336 332 332 331 329 328 328 326 329 306 295 291 294 293 287 263 256 246 237
156 155 163 200 279 289 318 56 30 22 346 311 324 293 311 18 6 352 343 341 341 335 335 336 333 328 329 328 326 328 331 336 341 334 336 317 297 285 283 277 249 242 234
136 179 187 218 134 263 358 41 325 330 306 304 283 294 333 50 319 286 273 303 328 335 329 329 327 325 325 326 327 331 331 333 338 335 331 327 325 307 280 276 263 246 232
151 183 162 152 72 33 334 287 289 302 281 282 289 311 328 324 283 301 295 288 278 272 303 313 315 317 321 326 325 327 330 330 341 338 330 325 327 331 311 283 268 249 220
165 141 91 68 116 299 312 288 285 287 285 283 276 276 286 279 273 279 286 290 289 289 289 307 309 311 316 320 319 323 326 328 329 335 329 323 330 337 331 336 306 241 213
135 109 113 182 231 231 270 280 291 278 269 275 288 289 279 277 278 278 276 278 284 280 275 291 292 296 312 318 317 322 320 321 329 326 337 330 333 337 337 336 337 334 299
133 142 141 174 252 265 286 275 265 269 272 270 273 268 268 271 275 275 276 279 283 288 282 288 284 293 306 314 311 317 321 327 325 327 346 339 338 341 342 337 341 333 340
162 155 160 210 259 255 248 262 268 267 267 264 260 261 262 271 270 272 279 279 283 278 288 279 279 292 298 302 305 315 322 324 320 336 352 346 341 343 344 342 343 341 345